Theta_e
324 323 321 322 320 318 316 313 309 304 305 303 301 301 301 303 304 305 307 307 308 307 305 304 307 308 309 311 313 313 310 310 311 313 313 315 315 316 318 318 317 318 317 318 316
325 325 324 323 321 320 317 312 308 305 303 302 301 301 301 302 304 307 308 307 307 307 306 305 304 307 308 311 308 309 309 309 310 312 314 315 315 315 315 315 315 316 316 316 315
326 325 324 323 322 321 318 313 307 304 302 301 301 301 301 301 303 307 307 307 308 306 306 308 308 308 306 309 308 307 308 308 312 314 313 312 312 313 313 312 314 314 315 315 315
326 326 324 324 324 322 318 314 307 303 302 300 300 301 301 301 304 309 306 307 305 306 306 306 308 307 303 305 309 308 308 310 311 313 312 309 312 310 312 313 314 314 313 314 314
325 325 324 323 323 321 318 313 307 302 300 300 300 300 299 299 302 305 305 306 305 303 307 305 306 305 303 304 306 307 308 310 311 310 311 311 310 311 311 313 313 313 313 314 314
324 324 324 324 324 318 315 311 306 302 300 299 299 298 298 298 305 304 305 305 306 306 306 305 308 307 310 310 308 309 308 309 310 310 309 308 308 309 312 313 312 312 312 312 312
324 325 324 323 323 316 313 309 304 301 300 298 297 296 297 303 306 304 304 306 306 307 306 308 308 309 307 306 308 310 309 308 309 310 309 311 308 308 312 311 311 311 311 312 312
322 323 323 322 321 319 309 308 304 300 299 296 296 300 299 304 301 302 302 306 307 307 308 307 306 306 306 306 307 309 308 310 309 309 310 308 310 309 312 310 310 311 312 311 311
321 320 320 321 316 318 310 308 302 299 297 296 300 302 301 301 301 306 304 303 304 307 307 308 306 306 306 305 303 306 307 309 309 309 308 308 308 307 309 308 307 310 310 311 311
319 316 319 318 314 314 308 303 298 298 298 299 304 303 303 303 309 307 307 309 307 308 307 306 305 302 301 303 304 306 308 307 307 306 306 304 304 304 307 307 308 309 309 310 311
319 317 317 316 314 310 306 306 302 301 301 303 304 302 303 309 309 308 307 310 309 308 307 305 303 304 304 302 304 306 306 305 303 303 304 304 305 304 305 306 305 308 309 310 311
318 317 317 316 311 311 305 298 301 302 302 303 301 304 303 306 308 310 307 309 306 305 306 307 304 304 303 302 303 303 303 303 303 304 303 303 305 306 305 305 307 309 309 309 310
317 317 316 312 309 307 305 301 300 302 301 301 303 304 305 305 307 309 308 306 304 303 304 306 308 308 305 306 305 304 304 305 306 306 305 305 307 307 307 307 309 312 315 318 316
317 316 314 309 306 303 299 298 302 301 297 298 301 302 305 309 310 306 308 307 304 304 302 303 304 306 306 306 306 306 305 307 307 308 307 306 309 308 308 308 308 317 316 313 313
316 315 310 308 304 299 301 302 301 299 304 302 304 303 304 307 307 308 308 307 305 305 304 305 307 306 306 306 306 306 307 307 307 307 307 306 308 308 308 308 316 315 313 311 310
315 311 306 302 299 300 302 302 302 307 302 306 306 306 307 308 307 308 309 309 308 307 306 306 307 307 307 307 307 307 307 307 306 307 309 308 308 309 307 314 316 315 313 310 308
310 307 304 303 300 300 301 301 303 302 305 308 308 307 308 307 306 307 307 306 307 305 304 308 307 306 306 309 307 305 307 309 308 309 310 309 308 309 315 316 316 314 311 308 306
307 303 301 301 301 301 301 304 302 303 304 302 303 304 302 301 302 302 305 306 305 308 308 306 305 306 305 306 304 305 307 308 311 312 309 309 309 308 315 313 312 311 308 305 303
302 300 300 298 302 301 302 304 301 304 302 302 303 302 302 302 302 303 306 307 305 304 306 309 309 305 304 304 303 305 309 309 311 310 311 309 309 314 315 314 314 311 306 303 301
300 297 297 301 301 301 304 304 305 301 302 303 303 303 302 302 302 302 304 304 304 303 303 305 303 304 304 302 302 302 303 305 307 311 313 309 310 310 314 313 312 308 304 301 299
298 297 298 301 302 302 302 306 302 301 301 302 302 302 302 301 301 301 303 303 303 304 302 302 302 303 301 302 300 300 300 303 308 308 310 313 312 314 312 311 309 305 302 299 297
299 300 300 301 302 302 304 304 301 301 301 302 302 302 301 301 300 300 303 304 304 302 302 303 302 302 301 300 301 301 305 307 298 302 306 306 308 311 309 307 305 303 300 297 296
300 300 301 299 303 302 303 301 301 301 300 300 301 301 300 300 300 302 304 303 302 301 302 301 300 301 299 300 301 301 302 304 304 305 304 302 306 310 309 306 301 299 297 296 295
298 298 299 300 302 302 301 301 300 299 299 299 300 300 300 301 300 300 301 299 299 303 304 301 300 300 299 300 301 302 301 301 300 295 301 303 304 304 307 304 300 298 295 294 293
301 297 299 300 300 299 300 301 300 299 298 298 298 298 299 300 298 298 297 297 298 302 301 299 301 301 301 301 301 301 301 301 300 300 300 300 300 303 304 300 297 295 294 293 292
301 300 299 299 300 298 299 300 300 298 298 297 298 297 296 297 297 297 297 297 297 302 299 298 296 300 301 301 301 300 298 298 299 300 300 301 302 305 299 296 295 294 292 292 291
300 299 300 297 297 298 298 299 299 299 298 298 297 297 297 297 297 297 297 297 297 296 296 297 297 297 296 298 298 297 299 300 301 304 301 301 303 300 297 294 292 292 291 290 289
Wind_Speed
23 23 23 23 24 24 23 24 23 23 23 22 20 19 19 22 24 24 25 17 17 14 15 13 6 4 6 7 7 5 2 4 6 7 5 2 4 3 6 17 13 15 22 23 22
25 23 24 25 24 25 25 24 24 24 24 25 24 22 20 23 26 29 5 4 3 2 6 10 12 9 4 4 7 5 4 10 7 5 3 8 1 15 5 11 18 30 26 24 25
28 27 25 26 26 26 26 25 23 24 25 24 23 24 23 22 24 0 6 4 4 2 4 6 8 9 6 6 7 5 5 4 4 10 7 7 12 10 6 5 17 23 32 27 23
31 29 28 29 27 28 26 25 23 23 23 24 23 22 22 19 7 2 8 8 2 4 5 6 8 5 4 6 11 4 8 9 7 19 19 6 23 8 13 16 24 23 23 24 23
34 32 32 31 31 28 26 25 22 22 23 22 21 23 22 11 22 21 19 17 20 17 10 9 11 7 5 5 3 5 5 15 22 22 23 23 12 15 12 23 18 15 25 25 21
36 36 36 34 35 28 24 24 22 21 22 21 20 20 18 7 9 7 9 11 12 11 9 11 6 8 4 4 5 2 6 10 10 13 13 9 10 7 11 26 22 24 20 19 19
40 39 37 38 34 26 24 22 23 21 21 20 19 17 19 32 19 15 14 11 10 9 8 7 9 4 1 4 5 7 4 6 7 9 7 12 1 7 20 16 15 13 17 19 19
48 39 43 38 30 28 22 21 23 21 19 17 16 12 14 20 15 17 22 16 16 12 12 12 7 9 5 8 5 3 1 2 4 3 4 5 5 4 12 10 14 27 24 25 23
43 43 40 36 31 28 24 22 17 19 17 15 10 9 14 11 13 3 14 19 19 20 18 15 8 8 4 2 4 3 4 3 6 5 4 5 1 4 28 25 20 22 26 27 30
44 43 40 30 34 26 23 16 15 14 13 9 8 8 15 8 3 3 3 9 10 7 5 8 8 3 2 3 5 5 3 3 4 6 5 11 14 10 19 17 22 23 26 28 30
41 39 35 34 35 25 20 11 10 4 16 15 10 7 5 5 6 6 6 11 10 7 5 3 3 6 9 6 3 2 3 5 5 11 3 13 15 9 13 9 15 25 25 27 31
43 43 33 39 30 25 18 10 6 4 10 20 33 29 23 10 5 14 12 11 8 7 4 2 5 9 5 4 5 5 5 6 6 10 6 11 19 13 8 8 13 17 24 24 17
43 41 36 35 25 22 18 22 8 4 6 11 25 26 28 22 13 15 13 15 4 6 7 7 6 3 6 4 5 6 4 5 8 5 4 7 11 5 5 4 10 11 9 11 15
40 41 39 31 21 17 19 10 8 2 3 7 7 10 18 13 9 33 16 12 3 9 7 6 6 9 6 6 8 6 9 11 7 1 3 3 9 6 4 3 2 9 12 15 20
46 43 38 30 12 19 7 14 8 3 1 3 5 2 13 19 4 11 21 9 8 7 6 6 5 5 5 6 7 7 6 7 5 4 2 5 2 6 10 4 3 4 10 15 20
44 43 35 26 14 17 19 18 10 2 9 3 6 6 8 7 1 7 11 9 4 5 1 5 1 2 4 1 2 5 2 3 3 3 5 9 7 12 3 2 3 2 10 16 22
48 38 34 28 25 23 14 17 3 5 4 4 5 5 5 4 2 2 5 4 3 4 2 2 0 1 4 3 4 8 3 2 2 0 6 5 4 11 2 2 3 2 10 16 23
39 34 28 24 26 27 23 2 6 7 7 3 2 7 4 0 1 3 4 4 5 3 3 4 3 2 5 3 2 1 1 3 4 3 4 2 5 5 2 3 7 7 9 17 24
37 27 24 24 25 27 23 4 6 3 3 2 4 4 2 2 3 3 4 3 2 2 4 3 2 1 3 2 1 3 2 3 3 2 3 4 5 2 4 4 1 9 15 18 23
35 27 26 22 23 25 5 7 4 2 3 4 2 4 2 2 3 3 3 1 3 3 1 3 1 3 3 1 5 6 3 3 2 3 5 5 4 3 5 9 11 11 14 18 22
28 11 24 19 21 13 6 4 2 3 2 6 3 3 3 1 1 2 2 1 2 2 4 3 2 2 2 1 0 4 1 1 1 2 3 3 3 4 7 6 7 8 11 15 19
12 4 27 24 4 3 3 3 6 2 12 4 3 3 3 1 2 2 3 3 3 4 3 2 3 2 6 4 3 3 2 2 4 4 3 2 5 3 3 7 12 13 15 16 17
8 10 25 25 3 6 4 0 5 3 4 1 2 1 1 2 3 3 4 3 4 3 5 4 1 1 3 4 4 3 2 2 0 3 6 1 4 3 6 7 12 14 18 17 18
10 3 7 15 6 6 4 4 4 5 3 5 3 4 4 3 5 3 3 3 4 3 4 3 3 4 4 1 2 3 4 2 4 2 5 9 13 12 7 6 9 14 17 17 19
4 5 10 7 4 4 3 4 5 3 3 4 4 4 3 3 2 2 2 3 2 2 3 3 4 4 4 3 3 7 12 11 12 13 10 13 14 8 2 5 8 10 13 16 21
3 5 6 6 10 6 2 2 5 3 3 2 5 2 4 3 1 3 3 2 3 2 2 2 2 2 3 4 7 16 15 14 14 17 14 17 22 4 9 9 10 11 13 15 19
3 7 6 2 3 4 2 4 4 6 9 7 6 3 3 2 1 4 7 6 6 6 4 4 3 2 4 2 9 11 10 7 12 16 16 15 10 10 8 8 11 11 14 14 17
Wind_Direction
296 301 303 306 306 306 309 308 308 309 306 308 310 311 314 313 312 309 304 292 279 269 247 231 203 206 200 201 183 171 84 203 214 172 235 219 30 311 270 294 307 304 302 313 330
288 292 297 300 298 301 304 303 305 305 305 307 308 308 314 315 315 313 301 113 19 263 207 221 226 214 189 197 197 164 164 210 212 207 258 298 308 299 314 303 297 305 309 318 323
281 284 286 288 291 294 297 298 299 301 302 304 306 308 315 321 324 260 148 101 58 21 212 206 195 197 189 186 205 198 215 221 241 239 257 281 284 279 240 266 283 295 305 310 312
275 277 281 283 282 286 291 292 294 296 298 303 304 305 309 316 305 235 223 237 345 307 252 225 197 180 197 201 214 216 234 236 262 253 266 219 275 278 250 262 290 293 297 300 298
271 275 276 279 282 278 283 284 289 292 293 295 301 304 305 301 272 275 260 258 271 281 247 220 194 184 190 202 223 221 240 253 261 268 269 271 240 253 268 283 287 285 297 294 296
271 270 272 274 276 274 278 279 283 285 291 294 295 297 294 276 282 280 263 265 244 224 225 208 218 209 261 238 182 235 228 266 276 269 270 250 250 211 259 286 281 287 288 289 287
266 270 268 270 274 266 273 277 280 282 287 292 294 293 280 263 270 260 260 222 204 214 218 226 222 236 223 295 275 270 295 291 247 249 239 259 101 219 273 280 294 300 306 305 299
266 269 268 266 273 269 263 268 277 283 283 289 286 281 261 283 248 244 228 227 217 227 247 239 243 258 237 277 323 326 78 324 298 349 258 148 286 221 297 311 310 307 305 307 306
262 268 274 271 262 269 260 259 271 276 284 282 274 266 267 263 264 282 235 236 232 245 260 251 243 227 233 165 360 345 260 252 304 261 278 199 74 298 310 299 289 292 299 301 303
252 266 266 266 254 257 254 257 272 274 266 266 241 265 251 252 167 230 221 208 202 223 213 217 198 174 64 124 228 220 230 244 259 297 293 285 276 257 275 279 277 281 288 299 305
253 255 257 254 254 255 246 261 255 258 217 204 220 227 266 243 252 215 190 177 174 176 174 174 143 202 221 207 210 228 239 246 252 261 298 279 281 276 271 268 271 291 301 303 307
249 244 246 250 236 245 234 223 189 305 292 257 246 249 244 270 296 228 207 177 169 191 136 66 228 232 206 193 213 239 259 277 278 265 180 273 283 279 265 250 258 285 302 316 314
246 243 244 229 227 229 241 234 214 305 267 263 243 240 235 237 239 247 208 196 162 174 185 181 218 149 175 227 215 227 198 239 228 309 268 282 285 245 250 234 287 347 26 24 4
233 230 227 208 211 221 236 203 161 202 290 266 221 241 195 189 231 232 228 174 179 203 178 217 236 230 205 232 198 246 211 227 250 44 254 120 292 274 221 141 330 14 28 5 351
222 230 207 211 199 180 186 155 137 123 285 203 185 207 181 169 143 199 193 201 165 185 130 233 184 150 197 216 168 230 229 230 233 223 279 190 170 269 338 28 99 43 19 6 356
220 207 193 186 158 142 144 146 142 166 242 228 154 165 151 210 197 120 167 202 178 145 136 235 272 200 220 196 187 295 253 286 70 147 259 194 169 277 294 194 267 347 9 359 354
198 190 189 186 163 159 169 138 145 189 312 199 174 149 173 163 207 159 128 51 164 126 162 354 318 358 49 70 13 27 62 319 316 214 235 149 185 256 297 284 214 31 14 4 0
187 178 181 195 158 156 162 160 196 213 233 327 93 105 151 54 79 109 100 119 32 74 119 165 164 11 339 100 242 296 147 171 248 229 279 355 253 253 144 77 62 58 22 4 357
171 165 160 152 160 156 162 200 199 278 341 18 64 109 86 28 114 90 69 89 71 27 150 140 244 83 90 256 174 324 63 163 261 256 259 231 289 266 137 32 138 43 20 6 354
156 141 152 158 160 163 179 219 239 300 315 6 119 31 116 22 58 72 104 325 114 36 17 189 197 8 291 126 39 88 280 14 354 276 242 258 242 267 10 350 352 17 11 358 355
129 105 164 158 163 159 183 237 261 351 202 41 82 93 72 104 91 94 91 70 111 80 81 139 132 246 15 266 30 2 352 358 178 198 243 312 284 35 23 358 350 8 7 10 358
135 119 165 159 127 202 200 201 197 59 60 27 74 74 104 206 98 87 120 92 128 132 110 43 116 149 228 296 296 141 135 115 120 282 280 251 268 70 59 28 14 7 359 8 10
109 101 162 167 160 178 247 95 42 45 41 135 101 117 149 107 100 99 97 49 100 122 159 175 129 110 104 51 30 106 124 126 99 204 233 235 260 127 54 57 36 16 2 359 12
141 117 133 204 259 185 163 146 118 73 75 70 84 74 77 68 28 134 97 42 36 74 112 120 158 186 203 150 149 264 227 222 175 166 263 251 291 303 342 37 31 36 359 358 12
166 147 162 190 237 194 131 137 119 121 77 57 46 67 134 127 103 103 79 29 359 182 59 110 202 217 237 255 246 260 262 257 246 244 238 266 264 278 81 79 48 46 10 5 14
156 129 141 137 144 131 57 115 125 105 93 70 116 106 65 109 95 171 135 165 228 67 107 22 250 167 250 254 254 273 274 267 254 251 251 252 264 132 114 90 64 38 31 17 15
156 148 150 20 108 93 165 143 137 120 49 72 135 110 76 53 229 254 241 215 208 173 180 148 131 71 284 330 322 289 271 270 271 256 234 229 238 146 115 91 66 53 42 20 18